Weather History for Carbondale, IL

Change the Weather History Date:

Wednesday, February 13, 2013

  Actual Average Record
Temperature  
Mean Temperature 44 °F -  
Max Temperature 52 °F 44 °F 77 °F (1962)
Min Temperature 36 °F 24 °F 0 °F (1981)
Degree Days  
Heating Degree Days 21    
Moisture  
Dew Point 34 °F    
Average Humidity 75    
Maximum Humidity 87    
Minimum Humidity 40    
Precipitation  
Precipitation 0.08 in - - ()
Sea Level Pressure  
Sea Level Pressure 29.90 in    
Wind  
Wind Speed 6 mph (West)    
Max Wind Speed 10 mph    
Max Gust Speed 30 mph    
Visibility 8 miles    
Events Rain    
Averages and records for this station are not official NWS values.
T = Trace of Precipitation, MM = Missing Value Source: NWS Daily Summary

Daily Weather History Graph

Daily Weather History Graph

Search for Another Location

Airport:

Trip Planner

Search our weather history database for the weather conditions in past years. The results will help you decide how hot, cold, wet, or windy it might be!

Date:

Astronomy

Feb. 13, 2013 Rise Set
Actual Time 6:48 AM CST 5:34 PM CST
Civil Twilight 6:21 AM CST 6:01 PM CST
Nautical Twilight 5:50 AM CST 6:32 PM CST
Astronomical Twilight 5:20 AM CST 7:02 PM CST
Moon 8:22 AM CST (2/13) 9:31 PM CST (2/13)
Length of Visible Light 11h 39m
Length of Day
10h 45m
Waxing Crescent, 14% of the Moon is Illuminated
Feb 13
Waxing Crescent
Feb 17
First Quarter
Feb 25
Full
Mar 4
Last Quarter
Mar 11
New

Hourly Weather History & Observations

Time (CST) Temp. Windchill Dew Point Humidity Pressure Visibility Wind Dir Wind Speed Gust Speed Precip Events Conditions
12:52 AM 42.1 °F 39.2 °F 32.0 °F 67% 29.91 in 10.0 mi North 4.6 mph - N/A   Overcast
1:52 AM 42.1 °F 37.7 °F 30.9 °F 65% 29.91 in 10.0 mi North 6.9 mph - N/A   Overcast
2:52 AM 41.0 °F 38.0 °F 32.0 °F 70% 29.89 in 10.0 mi North 4.6 mph - N/A   Overcast
3:52 AM 39.9 °F 33.9 °F 33.1 °F 77% 29.89 in 9.0 mi NNW 9.2 mph - 0.00 in Rain Light Rain
4:14 AM 39.2 °F 32.5 °F 33.8 °F 81% 29.89 in 7.0 mi NNW 10.4 mph - 0.00 in Rain Light Rain
4:45 AM 37.4 °F 31.4 °F 33.8 °F 87% 29.88 in 5.0 mi NNW 8.1 mph - 0.01 in Rain Light Rain
4:52 AM 37.9 °F 33.5 °F 34.0 °F 86% 29.89 in 6.0 mi NNW 5.8 mph - 0.02 in Rain Light Rain
5:00 AM 37.4 °F 31.4 °F 33.8 °F 87% 29.88 in 6.0 mi North 8.1 mph - 0.00 in Rain Light Rain
5:52 AM 37.9 °F - 34.0 °F 86% 29.89 in 6.0 mi Calm Calm - 0.02 in Rain Light Rain
6:35 AM 37.4 °F - 33.8 °F 87% 29.88 in 8.0 mi Calm Calm - 0.01 in Rain Light Rain
6:52 AM 37.9 °F - 34.0 °F 86% 29.90 in 7.0 mi Calm Calm - 0.01 in Rain Light Rain
7:09 AM 37.4 °F - 33.8 °F 87% 29.89 in 5.0 mi North - - 0.00 in Rain Light Rain
7:18 AM 37.4 °F 30.8 °F 33.8 °F 87% 29.90 in 3.0 mi NW 9.2 mph 29.9 mph 0.01 in Rain Light Rain
7:37 AM 37.4 °F 30.8 °F 33.8 °F 87% 29.90 in 2.5 mi NNW 9.2 mph - 0.02 in Rain Light Rain
7:52 AM 37.9 °F 32.1 °F 34.0 °F 86% 29.92 in 2.5 mi NNW 8.1 mph - 0.02 in Rain Light Rain
8:35 AM 37.4 °F 32.1 °F 33.8 °F 87% 29.93 in 3.0 mi NW 6.9 mph - 0.01 in Rain Light Rain
8:52 AM 37.9 °F 33.5 °F 34.0 °F 86% 29.94 in 3.0 mi NW 5.8 mph - 0.01 in Rain Light Rain
9:44 AM 39.2 °F 37.0 °F 35.6 °F 87% 29.93 in 5.0 mi WSW 3.5 mph - 0.00 in   Haze
9:52 AM 39.9 °F 37.8 °F 35.1 °F 83% 29.94 in 6.0 mi WSW 3.5 mph - 0.00 in   Haze
10:52 AM 44.1 °F - 36.0 °F 73% 29.93 in 9.0 mi Calm Calm - N/A   Scattered Clouds
11:04 AM 44.6 °F 42.2 °F 35.6 °F 71% 29.92 in 10.0 mi Variable 4.6 mph - N/A   Overcast
11:37 AM 46.4 °F 42.4 °F 35.6 °F 66% 29.91 in 10.0 mi WSW 8.1 mph - N/A   Overcast
11:52 AM 46.9 °F - 35.1 °F 63% 29.91 in 10.0 mi WSW 8.1 mph - N/A   Scattered Clouds
12:52 PM 48.9 °F - 32.0 °F 52% 29.89 in 10.0 mi West 6.9 mph - N/A   Partly Cloudy
1:52 PM 51.1 °F - 28.9 °F 43% 29.87 in 10.0 mi SW 10.4 mph - N/A   Partly Cloudy
2:52 PM 52.0 °F - 28.0 °F 40% 29.86 in 10.0 mi WSW 10.4 mph - N/A   Clear
3:52 PM 52.0 °F - 28.9 °F 41% 29.86 in 10.0 mi SW 5.8 mph - N/A   Clear
4:52 PM 48.9 °F - 34.0 °F 56% 29.86 in 10.0 mi South 9.2 mph - N/A   Clear
5:52 PM 45.0 °F 39.7 °F 35.1 °F 68% 29.87 in 10.0 mi South 10.4 mph - N/A   Clear
6:52 PM 43.0 °F 37.2 °F 36.0 °F 76% 29.88 in 10.0 mi SSW 10.4 mph - N/A   Clear
7:52 PM 42.1 °F 36.1 °F 35.1 °F 76% 29.89 in 10.0 mi SSW 10.4 mph - N/A   Clear
8:52 PM 39.0 °F 34.0 °F 34.0 °F 82% 29.91 in 10.0 mi SSW 6.9 mph - N/A   Clear
9:52 PM 39.9 °F 35.8 °F 35.1 °F 83% 29.92 in 10.0 mi SSW 5.8 mph - N/A   Clear
10:52 PM 36.0 °F 31.1 °F 32.0 °F 86% 29.92 in 10.0 mi South 5.8 mph - N/A   Clear
11:52 PM 37.0 °F 31.6 °F 33.1 °F 86% 29.92 in 10.0 mi South 6.9 mph - N/A   Clear